| time (UTC) | temp C | wind direction | speed KPH | gust KPH | rain 1hr cm | rain 24hr cm | rain mn cm | humidity % | barometer mb |
| 20260508220004 | 16 | 153 | 0.0 | 1.6 | 0.00 | 0.00 | 0.00 | 57 | 994.5 |
| 20260508214505 | 16 | 118 | 1.6 | 1.6 | 0.00 | 0.00 | 0.00 | 56 | 994.7 |
| 20260508214005 | 17 | 105 | 1.6 | 3.2 | 0.00 | 0.00 | 0.00 | 54 | 994.8 |
| 20260508213504 | 17 | 201 | 3.2 | 3.2 | 0.00 | 0.00 | 0.00 | 52 | 994.8 |
| 20260508213004 | 17 | 147 | 1.6 | 3.2 | 0.00 | 0.00 | 0.00 | 54 | 994.9 |
| 20260508212504 | 18 | 195 | 4.8 | 4.8 | 0.00 | 0.00 | 0.00 | 52 | 994.9 |
| 20260508212005 | 17 | 141 | 3.2 | 4.8 | 0.00 | 0.00 | 0.00 | 53 | 994.8 |
| 20260508211504 | 17 | 168 | 3.2 | 4.8 | 0.00 | 0.00 | 0.00 | 54 | 994.7 |
| 20260508210005 | 17 | 118 | 3.2 | 3.2 | 0.00 | 0.00 | 0.00 | 56 | 995.1 |
| 20260508205505 | 17 | 224 | 3.2 | 3.2 | 0.00 | 0.00 | 0.00 | 56 | 995.0 |
| 20260508205005 | 16 | 151 | 3.2 | 3.2 | 0.00 | 0.00 | 0.00 | 57 | 994.9 |
| 20260508204005 | 17 | 124 | 0.0 | 1.6 | 0.00 | 0.00 | 0.00 | 54 | 995.1 |
| 20260508203504 | 18 | 133 | 3.2 | 3.2 | 0.00 | 0.00 | 0.00 | 52 | 995.0 |
| 20260508203004 | 17 | 186 | 1.6 | 1.6 | 0.00 | 0.00 | 0.00 | 53 | 995.1 |
| 20260508202504 | 18 | 145 | 8.0 | 11.3 | 0.00 | 0.00 | 0.00 | 49 | 995.3 |
| 20260508202005 | 18 | 147 | 1.6 | 3.2 | 0.00 | 0.00 | 0.00 | 50 | 995.6 |
| 20260508201004 | 17 | 263 | 3.2 | 3.2 | 0.00 | 0.00 | 0.00 | 51 | 995.4 |
| 20260508200504 | 17 | 238 | 3.2 | 8.0 | 0.00 | 0.00 | 0.00 | 50 | 995.7 |
| 20260508200004 | 18 | 142 | 1.6 | 1.6 | 0.00 | 0.00 | 0.00 | 49 | 995.9 |
| 20260508195504 | 18 | 169 | 0.0 | 1.6 | 0.00 | 0.00 | 0.00 | 47 | 996.0 |
| 20260508195005 | 18 | 54 | 1.6 | 1.6 | 0.00 | 0.00 | 0.00 | 48 | 996.0 |
| 20260508194504 | 18 | 151 | 0.0 | 1.6 | 0.00 | 0.00 | 0.00 | 47 | 996.2 |
| 20260508194004 | 18 | 47 | 0.0 | 1.6 | 0.00 | 0.00 | 0.00 | 49 | 996.0 |
| 20260508193004 | 17 | 137 | 1.6 | 1.6 | 0.00 | 0.00 | 0.00 | 49 | 996.2 |
| 20260508192005 | 17 | 168 | 3.2 | 3.2 | 0.00 | 0.00 | 0.00 | 47 | 996.4 |
| 20260508191504 | 16 | 147 | 0.0 | 0.0 | 0.00 | 0.00 | 0.00 | 48 | 996.7 |
| 20260508191004 | 17 | 199 | 0.0 | 0.0 | 0.00 | 0.00 | 0.00 | 47 | 996.6 |
| 20260508190504 | 17 | 121 | 1.6 | 3.2 | 0.00 | 0.00 | 0.00 | 45 | 996.6 |
| 20260508190005 | 17 | 123 | 1.6 | 1.6 | 0.00 | 0.00 | 0.00 | 45 | 996.6 |
| 20260508185505 | 18 | 176 | 1.6 | 3.2 | 0.00 | 0.00 | 0.00 | 45 | 996.7 |
| 20260508185004 | 17 | 132 | 0.0 | 0.0 | 0.00 | 0.00 | 0.00 | 45 | 996.7 |
| 20260508184504 | 17 | 157 | 3.2 | 4.8 | 0.00 | 0.00 | 0.00 | 44 | 996.8 |
| 20260508184005 | 18 | 244 | 4.8 | 9.7 | 0.00 | 0.00 | 0.00 | 44 | 996.7 |
| 20260508183505 | 17 | 129 | 3.2 | 3.2 | 0.00 | 0.00 | 0.00 | 43 | 996.7 |
| 20260508183004 | 17 | 142 | 0.0 | 0.0 | 0.00 | 0.00 | 0.00 | 42 | 996.6 |
| 20260508182504 | 17 | 244 | 3.2 | 3.2 | 0.00 | 0.00 | 0.00 | 45 | 997.0 |
| 20260508182004 | 17 | 190 | 6.4 | 9.7 | 0.00 | 0.00 | 0.00 | 45 | 996.5 |
| 20260508181505 | 18 | 120 | 0.0 | 1.6 | 0.00 | 0.00 | 0.00 | 43 | 996.8 |
| 20260508180504 | 18 | 219 | 6.4 | 9.7 | 0.00 | 0.00 | 0.00 | 37 | 996.9 |
| 20260508180004 | 17 | 112 | 0.0 | 0.0 | 0.00 | 0.00 | 0.00 | 38 | 996.9 |
| 20260508175505 | 17 | 144 | 0.0 | 1.6 | 0.00 | 0.00 | 0.00 | 39 | 996.7 |
| 20260508175005 | 17 | 119 | 3.2 | 4.8 | 0.00 | 0.00 | 0.00 | 38 | 997.0 |
| 20260508174504 | 16 | 266 | 1.6 | 3.2 | 0.00 | 0.00 | 0.00 | 38 | 997.0 |
| 20260508174005 | 16 | 220 | 0.0 | 0.0 | 0.00 | 0.00 | 0.00 | 38 | 997.2 |
| 20260508172504 | 15 | 265 | 4.8 | 9.7 | 0.00 | 0.00 | 0.00 | 41 | 997.5 |
| 20260508172005 | 16 | 307 | 1.6 | 3.2 | 0.00 | 0.00 | 0.00 | 41 | 997.5 |
| 20260508171505 | 16 | 209 | 0.0 | 1.6 | 0.00 | 0.00 | 0.00 | 41 | 997.7 |
| 20260508171004 | 16 | 253 | 3.2 | 4.8 | 0.00 | 0.00 | 0.00 | 41 | 997.6 |
| 20260508170005 | 16 | 338 | 4.8 | 8.0 | 0.00 | 0.00 | 0.00 | 39 | 997.8 |
| 20260508165505 | 16 | 251 | 0.0 | 0.0 | 0.00 | 0.00 | 0.00 | 39 | 998.1 |
| 20260508165005 | 16 | 294 | 3.2 | 4.8 | 0.00 | 0.00 | 0.00 | 39 | 998.0 |
| 20260508164504 | 16 | 254 | 4.8 | 8.0 | 0.00 | 0.00 | 0.00 | 39 | 998.0 |
| 20260508164005 | 15 | 177 | 0.0 | 0.0 | 0.00 | 0.00 | 0.00 | 40 | 998.1 |
| 20260508163504 | 15 | 233 | 4.8 | 4.8 | 0.00 | 0.00 | 0.00 | 39 | 998.4 |
| 20260508163004 | 15 | 296 | 8.0 | 9.7 | 0.00 | 0.00 | 0.00 | 41 | 998.4 |
| 20260508162504 | 15 | 200 | 0.0 | 0.0 | 0.00 | 0.00 | 0.00 | 42 | 998.5 |
| 20260508162005 | 15 | 152 | 0.0 | 1.6 | 0.00 | 0.00 | 0.00 | 43 | 998.4 |
| 20260508161504 | 15 | 197 | 0.0 | 1.6 | 0.00 | 0.00 | 0.00 | 43 | 998.4 |
| 20260508161004 | 15 | 155 | 1.6 | 1.6 | 0.00 | 0.00 | 0.00 | 43 | 998.5 |
| 20260508160504 | 15 | 166 | 1.6 | 1.6 | 0.00 | 0.00 | 0.00 | 45 | 998.4 |
| 20260508160004 | 15 | 122 | 0.0 | 0.0 | 0.00 | 0.00 | 0.00 | 47 | 998.4 |
| 20260508154504 | 13 | 276 | 4.8 | 4.8 | 0.00 | 0.00 | 0.00 | 48 | 998.7 |
| 20260508154004 | 13 | 250 | 3.2 | 8.0 | 0.00 | 0.00 | 0.00 | 49 | 998.4 |
| 20260508153505 | 13 | 228 | 3.2 | 3.2 | 0.00 | 0.00 | 0.00 | 50 | 998.6 |
| 20260508152504 | 13 | 191 | 1.6 | 3.2 | 0.00 | 0.00 | 0.00 | 51 | 998.7 |
| 20260508152004 | 13 | 148 | 1.6 | 1.6 | 0.00 | 0.00 | 0.00 | 49 | 998.7 |
| 20260508151505 | 13 | 301 | 4.8 | 4.8 | 0.00 | 0.00 | 0.00 | 49 | 998.6 |
| 20260508151004 | 13 | 209 | 1.6 | 1.6 | 0.00 | 0.00 | 0.00 | 50 | 998.7 |
| 20260508150504 | 13 | 63 | 1.6 | 1.6 | 0.00 | 0.00 | 0.00 | 51 | 998.6 |
| 20260508145505 | 15 | 126 | 0.0 | 1.6 | 0.00 | 0.00 | 0.00 | 52 | 998.9 |
| 20260508145004 | 15 | 116 | 0.0 | 1.6 | 0.00 | 0.00 | 0.00 | 52 | 998.9 |
| 20260508144505 | 14 | 124 | 0.0 | 0.0 | 0.00 | 0.00 | 0.00 | 54 | 998.7 |
| 20260508144005 | 13 | 117 | 1.6 | 1.6 | 0.00 | 0.00 | 0.00 | 54 | 998.8 |
| 20260508143504 | 13 | 114 | 0.0 | 1.6 | 0.00 | 0.00 | 0.00 | 54 | 998.8 |
| 20260508143004 | 13 | 131 | 0.0 | 0.0 | 0.00 | 0.00 | 0.00 | 55 | 999.0 |
| 20260508142504 | 12 | 159 | 0.0 | 0.0 | 0.00 | 0.00 | 0.00 | 56 | 999.0 |
| 20260508142005 | 12 | 273 | 3.2 | 3.2 | 0.00 | 0.00 | 0.00 | 58 | 999.0 |
| 20260508141505 | 12 | 114 | 0.0 | 0.0 | 0.00 | 0.00 | 0.00 | 59 | 999.0 |
| 20260508141004 | 13 | 326 | 3.2 | 3.2 | 0.00 | 0.00 | 0.00 | 58 | 999.0 |
| 20260508140504 | 12 | 121 | 0.0 | 0.0 | 0.00 | 0.00 | 0.00 | 59 | 999.0 |
| 20260508140004 | 12 | 117 | 0.0 | 0.0 | 0.00 | 0.00 | 0.00 | 61 | 999.1 |
| 20260508135504 | 12 | 188 | 1.6 | 1.6 | 0.00 | 0.00 | 0.00 | 60 | 999.1 |
| 20260508135005 | 12 | 88 | 0.0 | 0.0 | 0.00 | 0.00 | 0.00 | 60 | 999.1 |
| 20260508134504 | 11 | 97 | 0.0 | 0.0 | 0.00 | 0.00 | 0.00 | 60 | 999.1 |
| 20260508134004 | 11 | 199 | 0.0 | 0.0 | 0.00 | 0.00 | 0.00 | 65 | 999.2 |
| 20260508133504 | 11 | 119 | 0.0 | 0.0 | 0.00 | 0.00 | 0.00 | 65 | 998.8 |
| 20260508133005 | 11 | 123 | 0.0 | 1.6 | 0.00 | 0.00 | 0.00 | 67 | 999.1 |
| 20260508132504 | 11 | 174 | 0.0 | 0.0 | 0.00 | 0.00 | 0.00 | 68 | 999.0 |
| 20260508132004 | 11 | 253 | 4.8 | 4.8 | 0.00 | 0.00 | 0.00 | 68 | 999.1 |
| 20260508131505 | 10 | 161 | 0.0 | 1.6 | 0.00 | 0.00 | 0.00 | 68 | 999.2 |
| 20260508131004 | 10 | 210 | 1.6 | 1.6 | 0.00 | 0.00 | 0.00 | 68 | 999.1 |
| 20260508130004 | 10 | 256 | 4.8 | 4.8 | 0.00 | 0.00 | 0.00 | 71 | 999.0 |
| 20260508125504 | 10 | 163 | 0.0 | 0.0 | 0.00 | 0.00 | 0.00 | 72 | 998.9 |
| 20260508125005 | 10 | 194 | 0.0 | 0.0 | 0.00 | 0.00 | 0.00 | 72 | 999.0 |
| 20260508124504 | 10 | 167 | 0.0 | 0.0 | 0.00 | 0.00 | 0.00 | 71 | 998.7 |
| 20260508123504 | 10 | 146 | 0.0 | 0.0 | 0.00 | 0.00 | 0.00 | 69 | 998.9 |
| 20260508123005 | 10 | 114 | 0.0 | 0.0 | 0.00 | 0.00 | 0.00 | 68 | 999.0 |
| 20260508122504 | 10 | 107 | 0.0 | 0.0 | 0.00 | 0.00 | 0.00 | 70 | 998.7 |
| 20260508122004 | 9 | 106 | 0.0 | 0.0 | 0.00 | 0.00 | 0.00 | 73 | 998.9 |
| 20260508121504 | 8 | 115 | 0.0 | 0.0 | 0.00 | 0.00 | 0.00 | 75 | 999.0 |
| 20260508121005 | 8 | 114 | 0.0 | 0.0 | 0.00 | 0.00 | 0.00 | 76 | 998.6 |
| 20260508120504 | 8 | 114 | 0.0 | 0.0 | 0.00 | 0.00 | 0.00 | 77 | 998.7 |
| 20260508120005 | 7 | 115 | 0.0 | 0.0 | 0.00 | 0.00 | 0.00 | 79 | 998.6 |
| 20260508115504 | 7 | 128 | 0.0 | 0.0 | 0.00 | 0.00 | 0.00 | 79 | 998.6 |
| 20260508115004 | 7 | 125 | 0.0 | 0.0 | 0.00 | 0.00 | 0.00 | 80 | 998.3 |
| 20260508114505 | 7 | 124 | 0.0 | 0.0 | 0.00 | 0.00 | 0.00 | 81 | 998.6 |
| 20260508114004 | 7 | 114 | 0.0 | 0.0 | 0.00 | 0.00 | 0.00 | 83 | 998.2 |
| 20260508113005 | 6 | 114 | 0.0 | 0.0 | 0.00 | 0.00 | 0.00 | 84 | 998.2 |
| 20260508112505 | 6 | 104 | 0.0 | 0.0 | 0.00 | 0.00 | 0.00 | 85 | 998.1 |
| 20260508112005 | 6 | 107 | 0.0 | 0.0 | 0.00 | 0.00 | 0.00 | 86 | 998.4 |
| 20260508111504 | 6 | 105 | 0.0 | 0.0 | 0.00 | 0.00 | 0.00 | 86 | 998.2 |
| 20260508111004 | 6 | 125 | 0.0 | 0.0 | 0.00 | 0.00 | 0.00 | 87 | 997.9 |
| 20260508110504 | 6 | 120 | 0.0 | 0.0 | 0.00 | 0.00 | 0.00 | 88 | 998.3 |
| 20260508110005 | 6 | 277 | 0.0 | 0.0 | 0.00 | 0.00 | 0.00 | 89 | 998.1 |
| 20260508104504 | 5 | 102 | 0.0 | 0.0 | 0.00 | 0.00 | 0.00 | 91 | 998.1 |
| 20260508104005 | 5 | 102 | 0.0 | 0.0 | 0.00 | 0.00 | 0.00 | 91 | 998.3 |
| 20260508103504 | 5 | 102 | 0.0 | 0.0 | 0.00 | 0.00 | 0.00 | 91 | 998.1 |
| 20260508103004 | 5 | 102 | 0.0 | 0.0 | 0.00 | 0.00 | 0.00 | 91 | 998.0 |
| 20260508102504 | 5 | 102 | 0.0 | 0.0 | 0.00 | 0.00 | 0.00 | 91 | 997.9 |
| 20260508102004 | 5 | 102 | 0.0 | 0.0 | 0.00 | 0.00 | 0.00 | 91 | 997.9 |
| 20260508101505 | 5 | 102 | 0.0 | 0.0 | 0.00 | 0.00 | 0.00 | 91 | 998.0 |
| 20260508100504 | 5 | 102 | 0.0 | 0.0 | 0.00 | 0.00 | 0.00 | 90 | 997.8 |
| 20260508100004 | 6 | 101 | 0.0 | 0.0 | 0.00 | 0.00 | 0.00 | 90 | 998.0 |
| 20260508095505 | 6 | 101 | 0.0 | 0.0 | 0.00 | 0.00 | 0.00 | 90 | 997.9 |
| 20260508095005 | 6 | 99 | 0.0 | 0.0 | 0.00 | 0.00 | 0.00 | 90 | 997.9 |
| 20260508094504 | 6 | 101 | 0.0 | 0.0 | 0.00 | 0.00 | 0.00 | 90 | 998.2 |
| 20260508094005 | 6 | 83 | 0.0 | 0.0 | 0.00 | 0.00 | 0.00 | 90 | 998.0 |
| 20260508093504 | 6 | 101 | 0.0 | 0.0 | 0.00 | 0.00 | 0.00 | 90 | 998.0 |
| 20260508093004 | 6 | 102 | 0.0 | 0.0 | 0.00 | 0.00 | 0.00 | 90 | 997.9 |
| 20260508092504 | 6 | 102 | 0.0 | 0.0 | 0.00 | 0.00 | 0.00 | 90 | 998.2 |
| 20260508092004 | 6 | 102 | 0.0 | 0.0 | 0.00 | 0.00 | 0.00 | 90 | 998.1 |
| 20260508091505 | 6 | 102 | 0.0 | 0.0 | 0.00 | 0.00 | 0.00 | 90 | 998.1 |
| 20260508091005 | 6 | 102 | 0.0 | 0.0 | 0.00 | 0.00 | 0.00 | 89 | 998.1 |
| 20260508090504 | 6 | 102 | 0.0 | 0.0 | 0.00 | 0.00 | 0.00 | 89 | 998.2 |
| 20260508090005 | 6 | 102 | 0.0 | 0.0 | 0.00 | 0.00 | 0.00 | 89 | 997.9 |
| 20260508085504 | 6 | 102 | 0.0 | 0.0 | 0.00 | 0.00 | 0.00 | 88 | 998.1 |
| 20260508085005 | 6 | 102 | 0.0 | 0.0 | 0.00 | 0.00 | 0.00 | 88 | 998.3 |
| 20260508084504 | 6 | 102 | 0.0 | 0.0 | 0.00 | 0.00 | 0.00 | 88 | 998.2 |
| 20260508084004 | 6 | 102 | 0.0 | 0.0 | 0.00 | 0.00 | 0.00 | 88 | 998.2 |
| 20260508083505 | 6 | 106 | 0.0 | 0.0 | 0.00 | 0.00 | 0.00 | 88 | 998.3 |
| 20260508083005 | 6 | 91 | 0.0 | 0.0 | 0.00 | 0.00 | 0.00 | 87 | 998.4 |
| 20260508082504 | 7 | 89 | 0.0 | 0.0 | 0.00 | 0.00 | 0.00 | 86 | 998.4 |
| 20260508082005 | 7 | 96 | 0.0 | 0.0 | 0.00 | 0.00 | 0.00 | 85 | 998.3 |
| 20260508081504 | 7 | 87 | 0.0 | 0.0 | 0.00 | 0.00 | 0.00 | 85 | 998.2 |
| 20260508081004 | 7 | 88 | 0.0 | 0.0 | 0.00 | 0.00 | 0.00 | 83 | 998.2 |
| 20260508080505 | 7 | 128 | 0.0 | 0.0 | 0.00 | 0.00 | 0.00 | 82 | 998.3 |
| 20260508080005 | 7 | 128 | 0.0 | 0.0 | 0.00 | 0.00 | 0.00 | 81 | 998.2 |
| 20260508075505 | 7 | 133 | 0.0 | 0.0 | 0.00 | 0.00 | 0.00 | 81 | 998.2 |
| 20260508074505 | 7 | 116 | 0.0 | 0.0 | 0.00 | 0.00 | 0.00 | 78 | 998.3 |
| 20260508074005 | 7 | 154 | 0.0 | 0.0 | 0.00 | 0.00 | 0.00 | 79 | 998.5 |
| 20260508073504 | 7 | 155 | 0.0 | 0.0 | 0.00 | 0.00 | 0.00 | 79 | 998.2 |
| 20260508073004 | 7 | 155 | 0.0 | 0.0 | 0.00 | 0.00 | 0.00 | 79 | 998.2 |
| 20260508072504 | 7 | 155 | 0.0 | 0.0 | 0.00 | 0.00 | 0.00 | 80 | 998.3 |
| 20260508072004 | 7 | 155 | 0.0 | 0.0 | 0.00 | 0.00 | 0.00 | 81 | 998.0 |
| 20260508071505 | 7 | 155 | 0.0 | 0.0 | 0.00 | 0.00 | 0.00 | 81 | 998.2 |
| 20260508071004 | 7 | 155 | 0.0 | 0.0 | 0.00 | 0.00 | 0.00 | 82 | 998.1 |
| 20260508070505 | 7 | 155 | 0.0 | 0.0 | 0.00 | 0.00 | 0.00 | 83 | 998.0 |
| 20260508065504 | 7 | 155 | 0.0 | 0.0 | 0.00 | 0.00 | 0.00 | 83 | 997.9 |
| 20260508065005 | 7 | 155 | 0.0 | 0.0 | 0.00 | 0.00 | 0.00 | 83 | 998.1 |
| 20260508064505 | 6 | 155 | 0.0 | 0.0 | 0.00 | 0.00 | 0.00 | 83 | 998.2 |
| 20260508063504 | 6 | 155 | 0.0 | 0.0 | 0.00 | 0.00 | 0.00 | 83 | 998.1 |
| 20260508063005 | 6 | 155 | 0.0 | 0.0 | 0.00 | 0.00 | 0.00 | 82 | 998.3 |
| 20260508062505 | 7 | 155 | 0.0 | 0.0 | 0.00 | 0.00 | 0.00 | 82 | 998.2 |
| 20260508062005 | 7 | 155 | 0.0 | 0.0 | 0.00 | 0.00 | 0.00 | 81 | 998.4 |
| 20260508061504 | 7 | 154 | 0.0 | 0.0 | 0.00 | 0.00 | 0.00 | 81 | 998.2 |
| 20260508061005 | 7 | 154 | 0.0 | 0.0 | 0.00 | 0.00 | 0.00 | 81 | 998.3 |
| 20260508060505 | 7 | 154 | 0.0 | 0.0 | 0.00 | 0.00 | 0.00 | 81 | 998.4 |
| 20260508060005 | 7 | 154 | 0.0 | 0.0 | 0.00 | 0.00 | 0.00 | 81 | 998.6 |
| 20260508055505 | 7 | 154 | 0.0 | 0.0 | 0.00 | 0.00 | 0.00 | 80 | 998.5 |
| 20260508055004 | 7 | 154 | 0.0 | 0.0 | 0.00 | 0.00 | 0.00 | 79 | 998.4 |
| 20260508054504 | 7 | 154 | 0.0 | 0.0 | 0.00 | 0.00 | 0.00 | 79 | 998.4 |
| 20260508054004 | 7 | 155 | 0.0 | 0.0 | 0.00 | 0.00 | 0.00 | 78 | 998.4 |
| 20260508053505 | 7 | 154 | 0.0 | 0.0 | 0.00 | 0.00 | 0.00 | 78 | 998.6 |
| 20260508053004 | 7 | 155 | 0.0 | 0.0 | 0.00 | 0.00 | 0.00 | 76 | 998.6 |
| 20260508052504 | 8 | 123 | 0.0 | 0.0 | 0.00 | 0.00 | 0.00 | 74 | 998.5 |
| 20260508052005 | 8 | 201 | 1.6 | 1.6 | 0.00 | 0.00 | 0.00 | 72 | 998.6 |
| 20260508051505 | 8 | 148 | 0.0 | 0.0 | 0.00 | 0.00 | 0.00 | 70 | 998.6 |
| 20260508051004 | 8 | 271 | 3.2 | 3.2 | 0.00 | 0.00 | 0.00 | 69 | 998.8 |
| 20260508050505 | 8 | 72 | 0.0 | 1.6 | 0.00 | 0.00 | 0.00 | 68 | 998.8 |
| 20260508050005 | 9 | 351 | 1.6 | 1.6 | 0.00 | 0.00 | 0.00 | 67 | 998.6 |
| 20260508045005 | 10 | 254 | 1.6 | 3.2 | 0.00 | 0.00 | 0.00 | 63 | 998.5 |
| 20260508044504 | 10 | 149 | 0.0 | 0.0 | 0.00 | 0.00 | 0.00 | 62 | 998.6 |
| 20260508044004 | 10 | 152 | 0.0 | 1.6 | 0.00 | 0.00 | 0.00 | 60 | 998.5 |
| 20260508042504 | 10 | 154 | 0.0 | 0.0 | 0.00 | 0.00 | 0.00 | 59 | 998.4 |
| 20260508042004 | 10 | 176 | 0.0 | 0.0 | 0.00 | 0.00 | 0.00 | 59 | 998.5 |
| 20260508041505 | 10 | 177 | 0.0 | 0.0 | 0.00 | 0.00 | 0.00 | 59 | 998.4 |
| 20260508041005 | 10 | 177 | 0.0 | 0.0 | 0.00 | 0.00 | 0.00 | 60 | 998.3 |
| 20260508040504 | 10 | 175 | 0.0 | 0.0 | 0.00 | 0.00 | 0.00 | 59 | 998.3 |
| 20260508035504 | 10 | 174 | 0.0 | 0.0 | 0.00 | 0.00 | 0.00 | 58 | 998.6 |
| 20260508035004 | 10 | 173 | 0.0 | 0.0 | 0.00 | 0.00 | 0.00 | 57 | 998.3 |
| 20260508034505 | 10 | 171 | 0.0 | 0.0 | 0.00 | 0.00 | 0.00 | 57 | 998.2 |
| 20260508033505 | 10 | 171 | 0.0 | 0.0 | 0.00 | 0.00 | 0.00 | 57 | 998.5 |
| 20260508032505 | 10 | 181 | 0.0 | 0.0 | 0.00 | 0.00 | 0.00 | 55 | 998.6 |
| 20260508032004 | 10 | 192 | 3.2 | 4.8 | 0.00 | 0.00 | 0.00 | 55 | 998.9 |
| 20260508031004 | 10 | 224 | 3.2 | 3.2 | 0.00 | 0.00 | 0.00 | 56 | 998.8 |
| 20260508030005 | 11 | 185 | 0.0 | 0.0 | 0.00 | 0.00 | 0.00 | 55 | 999.1 |
| 20260508025504 | 11 | 282 | 1.6 | 1.6 | 0.00 | 0.00 | 0.00 | 55 | 998.9 |
| 20260508025005 | 11 | 179 | 0.0 | 1.6 | 0.00 | 0.00 | 0.00 | 54 | 998.9 |
| 20260508024004 | 11 | 117 | 1.6 | 1.6 | 0.00 | 0.00 | 0.00 | 53 | 998.7 |
| 20260508023504 | 11 | 256 | 4.8 | 4.8 | 0.00 | 0.00 | 0.00 | 50 | 998.7 |
| 20260508023005 | 11 | 192 | 0.0 | 0.0 | 0.00 | 0.00 | 0.00 | 50 | 998.6 |
| 20260508022505 | 11 | 191 | 0.0 | 1.6 | 0.00 | 0.00 | 0.00 | 50 | 998.7 |
| 20260508022005 | 11 | 220 | 3.2 | 3.2 | 0.00 | 0.00 | 0.00 | 49 | 998.6 |
| 20260508021505 | 11 | 209 | 0.0 | 0.0 | 0.00 | 0.00 | 0.00 | 49 | 998.6 |
| 20260508021004 | 11 | 209 | 0.0 | 0.0 | 0.00 | 0.00 | 0.00 | 49 | 998.8 |
| 20260508020505 | 11 | 216 | 0.0 | 0.0 | 0.00 | 0.00 | 0.00 | 48 | 998.7 |
| 20260508015504 | 11 | 207 | 0.0 | 1.6 | 0.00 | 0.00 | 0.00 | 48 | 998.8 |
| 20260508015004 | 11 | 194 | 0.0 | 0.0 | 0.00 | 0.00 | 0.00 | 49 | 998.4 |
| 20260508014505 | 11 | 202 | 0.0 | 0.0 | 0.00 | 0.00 | 0.00 | 48 | 998.3 |
| 20260508014004 | 11 | 202 | 0.0 | 0.0 | 0.00 | 0.00 | 0.00 | 47 | 998.4 |
| 20260508013504 | 11 | 196 | 0.0 | 0.0 | 0.00 | 0.00 | 0.00 | 47 | 998.2 |
| 20260508013005 | 11 | 202 | 0.0 | 0.0 | 0.00 | 0.00 | 0.00 | 46 | 998.1 |
| 20260508012505 | 11 | 206 | 0.0 | 0.0 | 0.00 | 0.00 | 0.00 | 46 | 998.2 |
| 20260508012005 | 11 | 265 | 0.0 | 0.0 | 0.00 | 0.00 | 0.00 | 46 | 997.9 |
| 20260508010504 | 11 | 195 | 0.0 | 0.0 | 0.00 | 0.00 | 0.00 | 45 | 998.1 |
| 20260508005004 | 11 | 191 | 0.0 | 0.0 | 0.00 | 0.00 | 0.00 | 45 | 997.9 |
| 20260508004505 | 11 | 189 | 1.6 | 1.6 | 0.00 | 0.00 | 0.00 | 44 | 998.0 |
| 20260508004005 | 11 | 193 | 3.2 | 3.2 | 0.00 | 0.00 | 0.00 | 44 | 997.9 |
| 20260508003504 | 11 | 187 | 0.0 | 0.0 | 0.00 | 0.00 | 0.00 | 44 | 997.8 |
| 20260508003005 | 12 | 197 | 0.0 | 1.6 | 0.00 | 0.00 | 0.00 | 44 | 997.8 |
| 20260508002504 | 12 | 190 | 3.2 | 3.2 | 0.00 | 0.00 | 0.00 | 43 | 998.0 |
| 20260508002005 | 12 | 250 | 4.8 | 4.8 | 0.00 | 0.00 | 0.00 | 42 | 997.8 |
| 20260508001504 | 12 | 117 | 1.6 | 1.6 | 0.00 | 0.00 | 0.00 | 42 | 998.0 |
| 20260508001004 | 12 | 243 | 3.2 | 3.2 | 0.00 | 0.00 | 0.00 | 42 | 997.9 |
| 20260508000504 | 12 | 202 | 1.6 | 3.2 | 0.00 | 0.00 | 0.00 | 42 | 997.9 |
| 20260507235505 | 12 | 208 | 3.2 | 4.8 | 0.00 | 0.00 | 0.00 | 42 | 998.1 |
| 20260507235005 | 12 | 176 | 1.6 | 1.6 | 0.00 | 0.00 | 0.00 | 41 | 998.0 |
| 20260507234504 | 12 | 196 | 0.0 | 0.0 | 0.00 | 0.00 | 0.00 | 41 | 998.1 |
| 20260507234005 | 12 | 232 | 3.2 | 3.2 | 0.00 | 0.00 | 0.00 | 40 | 997.9 |
| 20260507233505 | 12 | 216 | 4.8 | 8.0 | 0.00 | 0.00 | 0.00 | 41 | 998.2 |
| 20260507233004 | 12 | 263 | 4.8 | 8.0 | 0.00 | 0.00 | 0.00 | 41 | 998.0 |
| 20260507232505 | 12 | 211 | 0.0 | 0.0 | 0.00 | 0.00 | 0.00 | 41 | 998.2 |
| 20260507232004 | 12 | 278 | 3.2 | 4.8 | 0.00 | 0.00 | 0.00 | 41 | 998.1 |
| 20260507231505 | 12 | 220 | 6.4 | 9.7 | 0.00 | 0.00 | 0.00 | 41 | 998.5 |
| 20260507230504 | 12 | 228 | 3.2 | 3.2 | 0.00 | 0.00 | 0.00 | 41 | 998.4 |
| 20260507230005 | 12 | 244 | 3.2 | 3.2 | 0.00 | 0.00 | 0.00 | 40 | 998.3 |
| 20260507225505 | 12 | 303 | 6.4 | 9.7 | 0.00 | 0.00 | 0.00 | 39 | 998.5 |
| 20260507225004 | 12 | 308 | 8.0 | 11.3 | 0.00 | 0.00 | 0.00 | 40 | 998.9 |
| 20260507224505 | 12 | 227 | 1.6 | 3.2 | 0.00 | 0.00 | 0.00 | 39 | 998.6 |
| 20260507223504 | 12 | 291 | 4.8 | 4.8 | 0.00 | 0.00 | 0.00 | 39 | 998.8 |
| 20260507222504 | 13 | 246 | 4.8 | 11.3 | 0.00 | 0.00 | 0.00 | 38 | 999.1 |
| 20260507222005 | 13 | 235 | 9.7 | 12.9 | 0.00 | 0.00 | 0.00 | 36 | 999.1 |
| 20260507221004 | 13 | 235 | 8.0 | 9.7 | 0.00 | 0.00 | 0.00 | 37 | 999.0 |